This demonstration page uses our WeatherBlox Daily Observations layout. Learn more.

Left ArrowRight Arrow

Hourly Observations for February 1, 2015

Temp ( °F °C ) Dew Point ( °F °C ) Humidity (%) Winds ( mph kmh ) Pressure ( in mb ) Visibility ( mi km ) Precip ( " mm )
12:15 am 00:15 Cloudy 32 0 N/A N/A S 3 6 30.24 1024 3 4.82802 N/A
12:35 am 00:35 Cloudy 32 0 N/A N/A SSW 5 7 30.24 1024 2.5 4.02335 N/A
12:56 am 00:56 Cloudy 32 0 N/A N/A Calm 30.24 1024 2.5 4.02335 N/A
1:15 am 01:15 Cloudy 32 0 N/A N/A Calm 30.24 1024 2.5 4.02335 N/A
1:35 am 01:35 Cloudy 32 0 N/A N/A S 6 9 30.24 1024 2.5 4.02335 N/A
1:56 am 01:56 Partly Cloudy 32 0 N/A N/A ESE 5 7 30.21 1023 4 6.43736 N/A
2:15 am 02:15 Partly Cloudy 32 0 N/A N/A ESE 5 7 30.21 1023 4 6.43736 N/A
2:35 am 02:35 Clear 32 0 N/A N/A ESE 5 7 30.21 1023 4 6.43736 N/A
2:55 am 02:55 Clear 32 0 N/A N/A ESE 5 7 30.18 1022 4 6.43736 N/A
3:15 am 03:15 Clear 32 0 N/A N/A ESE 6 9 30.18 1022 5 8.0467 N/A
3:35 am 03:35 Clear 32 0 N/A N/A SE 6 9 30.15 1021 5 8.0467 N/A
3:55 am 03:55 Clear 32 0 N/A N/A Calm 30.15 1021 5 8.0467 N/A
4:15 am 04:15 Partly Cloudy 32 0 N/A N/A ENE 5 7 30.15 1021 5 8.0467 N/A
4:35 am 04:35 Clear 32 0 N/A N/A E 7 11 30.15 1021 5 8.0467 N/A
4:55 am 04:55 Clear 32 0 N/A N/A E 6 9 30.12 1020 7 11.26538 N/A
5:15 am 05:15 Clear 32 0 32 0 100 100 Calm 30.12 1020 7 11.26538 N/A
5:35 am 05:35 Clear 32 0 32 0 100 100 ESE 5 7 30.12 1020 7 11.26538 N/A
5:55 am 05:55 Clear 32 0 32 0 100 100 E 7 11 30.12 1020 7 11.26538 N/A
6:16 am 06:16 Clear 32 0 32 0 100 100 ENE 9 15 30.06 1018 7 11.26538 N/A
6:35 am 06:35 Clear 32 0 30 -1 93 93 SE 8 13 30.06 1018 10 16.0934 N/A
6:55 am 06:55 Clear 32 0 30 -1 93 93 ESE 5 7 30.06 1018 10 16.0934 N/A
7:16 am 07:16 Clear 32 0 23 -5 69 69 SE 8 13 30.06 1018 10 16.0934 N/A
7:35 am 07:35 Clear 32 0 23 -5 69 69 ESE 9 15 30.03 1017 10 16.0934 N/A
7:55 am 07:55 Sunny 34 1 23 -5 65 65 SE 10 17 30.03 1017 10 16.0934 N/A
8:16 am 08:16 Sunny 34 1 23 -5 65 65 SE 10 17 30.03 1017 10 16.0934 N/A
8:35 am 08:35 Sunny 34 1 23 -5 65 65 ESE 10 17 30 1016 10 16.0934 N/A
8:55 am 08:55 Sunny 34 1 23 -5 65 65 ESE 12 19 30 1016 10 16.0934 N/A
9:16 am 09:16 Sunny 36 2 23 -5 60 60 SE 13 20 29.97 1015 10 16.0934 N/A
9:35 am 09:35 Sunny 34 1 23 -5 65 65 SE 12 19 29.97 1015 10 16.0934 N/A
9:55 am 09:55 Sunny 34 1 23 -5 65 65 SE 12 19 29.97 1015 10 16.0934 N/A
10:16 am 10:16 Sunny 36 2 23 -5 60 60 SE 8 13 29.91 1013 10 16.0934 N/A
10:35 am 10:35 Partly Cloudy 36 2 23 -5 60 60 SE 10 17 29.91 1013 7 11.26538 N/A
10:55 am 10:55 Cloudy 36 2 23 -5 60 60 S 9 15 29.91 1013 4 6.43736 N/A
11:15 am 11:15 Cloudy 34 1 25 -4 70 70 SSE 15 24 29.91 1013 1 1.60934 N/A
11:35 am 11:35 Cloudy 34 1 34 1 100 100 SE 9 15 29.88 1012 1.25 2.011675 N/A
11:56 am 11:56 Cloudy 32 0 32 0 100 100 SE 9 15 29.88 1012 1.25 2.011675 N/A
12:15 pm 12:15 Cloudy 34 1 N/A N/A ESE 8 13 29.83 1010 2 3.21868 N/A
12:36 pm 12:36 Cloudy 34 1 N/A N/A ESE 6 9 29.83 1010 2.5 4.02335 N/A
12:55 pm 12:55 Cloudy 34 1 N/A N/A ESE 7 11 29.8 1009 4 6.43736 N/A
1:15 pm 13:15 Cloudy 34 1 N/A N/A ESE 8 13 29.77 1008 5 8.0467 N/A
1:35 pm 13:35 Cloudy 34 1 N/A N/A ESE 7 11 29.74 1007 3 4.82802 N/A
1:55 pm 13:55 Cloudy 34 1 N/A N/A SE 7 11 29.74 1007 3 4.82802 N/A
2:16 pm 14:16 Cloudy 34 1 N/A N/A ESE 7 11 29.71 1006 1.5 2.41401 N/A
2:35 pm 14:35 Cloudy 34 1 N/A N/A ESE 9 15 29.68 1005 1.25 2.011675 N/A
2:55 pm 14:55 Cloudy 34 1 N/A N/A SE 8 13 29.68 1005 1.25 2.011675 N/A
3:15 pm 15:15 Cloudy 34 1 N/A N/A SE 7 11 29.65 1004 1.5 2.41401 N/A
3:35 pm 15:35 Cloudy 34 1 N/A N/A SE 7 11 29.65 1004 1.25 2.011675 N/A
3:55 pm 15:55 Cloudy 36 2 N/A N/A SE 5 7 29.62 1003 1.25 2.011675 N/A
4:15 pm 16:15 Cloudy 36 2 N/A N/A Calm 29.62 1003 1 1.60934 N/A
4:35 pm 16:35 Cloudy 36 2 N/A N/A Calm 29.62 1003 1 1.60934 N/A
4:56 pm 16:56 Cloudy 36 2 N/A N/A Calm 29.62 1003 0.5 0.80467 N/A
5:15 pm 17:15 Cloudy 36 2 N/A N/A Calm 29.59 1002 0.5 0.80467 N/A
5:35 pm 17:35 Cloudy 36 2 N/A N/A Calm 29.62 1003 0.75 1.207005 N/A
5:56 pm 17:56 Cloudy 34 1 N/A N/A Calm 29.59 1002 0.5 0.80467 N/A
6:15 pm 18:15 Cloudy 34 1 N/A N/A Calm 29.59 1002 0.75 1.207005 N/A
6:35 pm 18:35 Cloudy 34 1 N/A N/A Calm 29.59 1002 0.75 1.207005 N/A
6:56 pm 18:56 Cloudy 34 1 N/A N/A SW 3 6 29.59 1002 0.75 1.207005 N/A
7:15 pm 19:15 Cloudy 36 2 N/A N/A WSW 6 9 29.59 1002 3 4.82802 N/A
7:35 pm 19:35 Cloudy 36 2 N/A N/A W 5 7 29.59 1002 1.5 2.41401 N/A
7:56 pm 19:56 Cloudy 36 2 N/A N/A W 5 7 29.59 1002 0.75 1.207005 N/A
8:15 pm 20:15 Cloudy 36 2 N/A N/A W 9 15 29.59 1002 4 6.43736 N/A
8:35 pm 20:35 Cloudy 36 2 N/A N/A W 9 15 29.59 1002 5 8.0467 N/A
8:55 pm 20:55 Cloudy 36 2 N/A N/A W 14 22 29.59 1002 5 8.0467 N/A
9:15 pm 21:15 Cloudy 36 2 N/A N/A W 9 15 29.59 1002 7 11.26538 N/A
9:36 pm 21:36 Cloudy 36 2 N/A N/A W 10 17 29.59 1002 5 8.0467 N/A
9:55 pm 21:55 Cloudy 34 1 N/A N/A W 12 19 29.59 1002 7 11.26538 N/A
10:15 pm 22:15 Cloudy 34 1 N/A N/A W 13 20 29.59 1002 10 16.0934 N/A
10:36 pm 22:36 Cloudy 34 1 N/A N/A W 15 24 29.59 1002 10 16.0934 N/A
10:55 pm 22:55 Cloudy 34 1 N/A N/A W 14 22 29.59 1002 7 11.26538 N/A
11:15 pm 23:15 Cloudy 34 1 N/A N/A W 10 17 29.62 1003 4 6.43736 N/A
11:36 pm 23:36 Cloudy 34 1 N/A N/A W 9 15 29.62 1003 5 8.0467 N/A
11:55 pm 23:55 Cloudy 30 -1 N/A N/A N 14 22 29.62 1003 3 4.82802 N/A

Powered by AerisWeather